Simultaneous Nadir Overpasses (SNOs) Predictions

Prediction of SNOs between GOES-15 and TERRA Satellite Orbit:

Table of predicted SNOs for the next 14.0 days since TLE Epoch: 6/2/2012
Index Date Time (GOES-15) GOES-15 Lat,Lon TERRA Lat,Lon Distance(km) Time Diff (sec)
1 06/02/2012 07:27:46 0.09,-135.33 0.18,-134.85 54.18 80
2 06/04/2012 07:15:32 0.10,-135.29 0.79,-131.88 386.75 80
3 06/04/2012 19:39:27 -0.07,-135.30 0.30,-137.04 197.53 80
4 06/06/2012 19:24:33 -0.08,-135.25 -0.32,-134.07 134.43 80
5 06/07/2012 07:48:35 0.06,-135.22 -0.82,-139.25 458.82 80
6 06/08/2012 19:12:19 -0.09,-135.21 -0.95,-131.10 466.29 80
7 06/09/2012 07:36:21 0.07,-135.17 -0.19,-136.28 126.98 80
8 06/11/2012 07:21:28 0.08,-135.12 0.45,-133.32 204.74 80
9 06/11/2012 19:45:22
